Change the Weather History Date:

Saturday, January 26, 2013

  Actual Average (KRFD) Record (KRFD)
Temperature  
Mean Temperature 16 °F 22 °F  
Max Temperature 25 °F 30 °F 61 °F (1944)
Min Temperature 6 °F 14 °F -18 °F (1982)
Degree Days  
Heating Degree Days 50 43  
Month to date heating degree days 1136  
Since 1 July heating degree days 3697  
Cooling Degree Days 0 0  
Month to date cooling degree days 0  
Year to date cooling degree days 0  
Moisture  
Dew Point 10 °F    
Average Humidity 72    
Maximum Humidity 87    
Minimum Humidity 54    
Precipitation  
Precipitation 0.00 in 0.04 in 1.32 in (1974)
Month to date precipitation 1.16  
Year to date precipitation 1.16  
Snow  
Snow 0.00 in 0.40 in 7.50 in (1941)
Month to date snowfall 8.6  
Since 1 July snowfall 21.7  
Snow Depth -    
Sea Level Pressure  
Sea Level Pressure 30.33 in    
Wind  
Wind Speed 5 mph (NNE)    
Max Wind Speed 10 mph    
Max Gust Speed -    
Visibility 10 miles    
Events      
T = Trace of Precipitation, MM = Missing Value Source: NWS Daily Summary

Daily Weather History Graph

Daily Weather History Graph

Search for Another Location

Airport or City:

Trip Planner

Search our weather history database for the weather conditions in past years. The results will help you decide how hot, cold, wet, or windy it might be!

Date:

Astronomy

Jan. 26, 2013 Rise Set
Actual Time 7:14 AM CST 5:04 PM CST
Civil Twilight 6:44 AM CST 5:34 PM CST
Nautical Twilight 6:10 AM CST 6:07 PM CST
Astronomical Twilight 5:37 AM CST 6:40 PM CST
Moon 4:59 PM CST (1/26) 6:31 AM CST (1/26)
Length of Visible Light 10h 49m
Length of Day
9h 49m
Full, 100% of the Moon is Illuminated
Jan 26
Full
Jan 26
Full
Feb 3
Last Quarter
Feb 10
New
Feb 17
First Quarter

Hourly Weather History & Observations

Time (CST) Temp. Windchill Dew Point Humidity Pressure Visibility Wind Dir Wind Speed Gust Speed Precip Events Conditions
12:15 AM 15.1 °F 6.4 °F 9.3 °F 78% 30.21 in 10.0 mi NW 5.8 mph - N/A   Scattered Clouds
12:55 AM 13.5 °F 4.4 °F 8.6 °F 81% 30.21 in 10.0 mi NW 5.8 mph - N/A   Clear
1:15 AM 12.9 °F 3.8 °F 8.2 °F 82% 30.22 in 10.0 mi NNW 5.8 mph - N/A   Clear
1:35 AM 11.5 °F 2.1 °F 7.3 °F 83% 30.21 in 10.0 mi NNW 5.8 mph - N/A   Clear
1:55 AM 12.2 °F 0.7 °F 8.1 °F 83% 30.23 in 10.0 mi NNW 8.1 mph - N/A   Clear
2:15 AM 11.8 °F -0.7 °F 7.7 °F 83% 30.23 in 10.0 mi NNW 9.2 mph - N/A   Clear
2:35 AM 12.9 °F -0.2 °F 7.7 °F 80% 30.24 in 10.0 mi NNW 10.4 mph - N/A   Clear
2:55 AM 12.2 °F 1.7 °F 7.3 °F 81% 30.25 in 10.0 mi NNW 6.9 mph - N/A   Clear
3:15 AM 11.7 °F 1.1 °F 6.8 °F 81% 30.25 in 10.0 mi NNW 6.9 mph - N/A   Clear
3:35 AM 12.2 °F -1.0 °F 6.6 °F 78% 30.25 in 10.0 mi North 10.4 mph - N/A   Clear
3:55 AM 11.5 °F 0.9 °F 6.1 °F 79% 30.26 in 10.0 mi NNW 6.9 mph - N/A   Clear
4:15 AM 9.7 °F -1.3 °F 5.4 °F 83% 30.27 in 10.0 mi NW 6.9 mph - N/A   Clear
4:35 AM 9.7 °F 3.2 °F 5.4 °F 83% 30.27 in 10.0 mi NNW 3.5 mph - N/A   Clear
4:55 AM 9.1 °F 2.6 °F 5.0 °F 83% 30.28 in 10.0 mi NNW 3.5 mph - N/A   Clear
5:15 AM 8.6 °F 2.0 °F 4.6 °F 84% 30.29 in 10.0 mi NNW 3.5 mph - N/A   Clear
5:35 AM 8.1 °F 1.4 °F 4.1 °F 84% 30.30 in 10.0 mi NW 3.5 mph - N/A   Clear
5:55 AM 8.4 °F 1.8 °F 4.3 °F 83% 30.31 in 10.0 mi WNW 3.5 mph - N/A   Clear
6:15 AM 6.4 °F -2.4 °F 2.8 °F 85% 30.31 in 10.0 mi WNW 4.6 mph - N/A   Clear
6:35 AM 6.8 °F -0.1 °F 3.4 °F 86% 30.32 in 10.0 mi NW 3.5 mph - N/A   Clear
6:55 AM 6.3 °F - 2.5 °F 84% 30.33 in 10.0 mi Calm Calm - N/A   Clear
7:15 AM 6.6 °F - 3.6 °F 87% 30.33 in 10.0 mi Calm Calm - N/A   Clear
7:35 AM 7.5 °F 0.8 °F 4.1 °F 86% 30.33 in 10.0 mi NW 3.5 mph - N/A   Clear
7:55 AM 8.6 °F 2.0 °F 4.3 °F 83% 30.34 in 10.0 mi NNW 3.5 mph - N/A   Clear
8:15 AM 10.4 °F 4.0 °F 5.9 °F 82% 30.35 in 10.0 mi NNW 3.5 mph - N/A   Clear
8:35 AM 12.9 °F 1.6 °F 6.8 °F 77% 30.36 in 10.0 mi North 8.1 mph - N/A   Clear
8:55 AM 13.6 °F 3.5 °F 7.2 °F 75% 30.37 in 10.0 mi NNW 6.9 mph - N/A   Clear
9:15 AM 14.5 °F 5.7 °F 7.7 °F 74% 30.37 in 10.0 mi North 5.8 mph - N/A   Clear
9:35 AM 14.9 °F 6.1 °F 7.5 °F 73% 30.38 in 10.0 mi NNW 5.8 mph - N/A   Clear
9:55 AM 15.8 °F 8.6 °F 7.9 °F 71% 30.38 in 10.0 mi North 4.6 mph - N/A   Clear
10:15 AM 16.7 °F 11.2 °F 8.1 °F 69% 30.38 in 10.0 mi North 3.5 mph - N/A   Clear
10:35 AM 17.8 °F - 8.2 °F 66% 30.39 in 10.0 mi Calm Calm - N/A   Clear
10:55 AM 19.2 °F - 8.4 °F 63% 30.38 in 10.0 mi Calm Calm - N/A   Clear
11:15 AM 20.5 °F 15.6 °F 8.8 °F 61% 30.38 in 10.0 mi East 3.5 mph - N/A   Clear
11:35 AM 21.2 °F - 7.5 °F 56% 30.37 in 10.0 mi Calm Calm - N/A   Clear
11:55 AM 21.9 °F - 7.5 °F 54% 30.36 in 10.0 mi Calm Calm - N/A   Clear
12:15 PM 22.3 °F - 7.9 °F 54% 30.37 in 10.0 mi Calm Calm - N/A   Clear
12:35 PM 22.3 °F 17.6 °F 9.5 °F 58% 30.38 in 10.0 mi SW 3.5 mph - N/A   Clear
12:55 PM 23.0 °F 18.4 °F 10.8 °F 60% 30.37 in 10.0 mi West 3.5 mph - N/A   Clear
1:15 PM 23.0 °F - 9.9 °F 57% 30.37 in 10.0 mi Calm Calm - N/A   Clear
1:35 PM 23.7 °F - 11.3 °F 59% 30.36 in 10.0 mi Calm Calm - N/A   Clear
1:55 PM 23.7 °F 17.8 °F 10.8 °F 58% 30.35 in 10.0 mi WSW 4.6 mph - N/A   Clear
2:15 PM 23.7 °F 19.3 °F 10.9 °F 58% 30.34 in 10.0 mi SW 3.5 mph - N/A   Clear
2:35 PM 24.4 °F 20.1 °F 12.0 °F 59% 30.35 in 10.0 mi South 3.5 mph - N/A   Clear
2:55 PM 25.0 °F 18.1 °F 11.8 °F 57% 30.34 in 10.0 mi SE 5.8 mph - N/A   Clear
3:15 PM 24.4 °F 18.6 °F 11.5 °F 58% 30.36 in 10.0 mi SSW 4.6 mph - N/A   Clear
3:35 PM 24.3 °F 18.4 °F 12.2 °F 60% 30.36 in 10.0 mi South 4.6 mph - N/A   Clear
3:55 PM 23.7 °F 17.8 °F 11.3 °F 59% 30.34 in 10.0 mi ESE 4.6 mph - N/A   Clear
4:15 PM 23.0 °F - 11.1 °F 60% 30.35 in 10.0 mi Calm Calm - N/A   Scattered Clouds
4:35 PM 22.1 °F - 12.4 °F 66% 30.36 in 10.0 mi Calm Calm - N/A   Scattered Clouds
4:55 PM 23.0 °F 18.4 °F 11.8 °F 62% 30.35 in 10.0 mi SSE 3.5 mph - N/A   Mostly Cloudy
5:15 PM 23.4 °F 18.9 °F 11.7 °F 61% 30.35 in 10.0 mi SE 3.5 mph - N/A   Overcast
5:35 PM 23.5 °F 16.4 °F 12.9 °F 64% 30.35 in 10.0 mi ESE 5.8 mph - N/A   Overcast
5:55 PM 23.5 °F 13.7 °F 12.9 °F 64% 30.35 in 10.0 mi ESE 9.2 mph - N/A   Overcast
6:15 PM 23.4 °F 14.3 °F 13.5 °F 66% 30.36 in 10.0 mi SE 8.1 mph - N/A   Overcast
6:55 PM 23.0 °F 14.7 °F 15.6 °F 73% 30.35 in 10.0 mi ESE 6.9 mph - N/A   Overcast
7:15 PM 23.0 °F 15.8 °F 15.3 °F 72% 30.34 in 10.0 mi ESE 5.8 mph - N/A   Overcast
7:35 PM 23.0 °F 14.7 °F 15.3 °F 72% 30.35 in 10.0 mi SE 6.9 mph - N/A   Overcast
7:55 PM 23.0 °F 14.7 °F 14.9 °F 71% 30.35 in 10.0 mi SE 6.9 mph - N/A   Overcast
8:15 PM 23.0 °F 15.8 °F 14.2 °F 69% 30.35 in 10.0 mi ESE 5.8 mph - N/A   Overcast
8:35 PM 23.0 °F 13.9 °F 15.3 °F 72% 30.35 in 10.0 mi SE 8.1 mph - N/A   Overcast
8:55 PM 23.4 °F 14.3 °F 15.6 °F 72% 30.34 in 10.0 mi SE 8.1 mph - N/A   Overcast
9:15 PM 23.5 °F 16.4 °F 15.6 °F 72% 30.35 in 10.0 mi SE 5.8 mph - N/A   Overcast
9:35 PM 23.5 °F 16.4 °F 16.2 °F 73% 30.34 in 10.0 mi SE 5.8 mph - N/A   Overcast
9:55 PM 23.7 °F 15.6 °F 16.3 °F 73% 30.34 in 10.0 mi ESE 6.9 mph - N/A   Overcast
10:15 PM 23.9 °F 15.8 °F 16.7 °F 74% 30.35 in 10.0 mi ESE 6.9 mph - N/A   Overcast
10:35 PM 23.9 °F 15.8 °F 16.7 °F 74% 30.35 in 10.0 mi SE 6.9 mph - N/A   Overcast
10:55 PM 24.1 °F 16.0 °F 16.7 °F 73% 30.34 in 10.0 mi SE 6.9 mph - N/A   Overcast
11:15 PM 23.9 °F 15.8 °F 17.2 °F 76% 30.34 in 10.0 mi SE 6.9 mph - N/A   Mostly Cloudy
11:35 PM 23.7 °F 14.0 °F 15.8 °F 72% 30.34 in 10.0 mi SSE 9.2 mph - N/A   Scattered Clouds
11:55 PM 22.8 °F 13.6 °F 16.3 °F 76% 30.34 in 10.0 mi SSE 8.1 mph - N/A   Scattered Clouds